Location: Étouvelles
(49.5207°N, 3.5808°E)
Time: 23:14:31
(UTC+00:00)

Cosmos 1726 Rocket - Pass Details

Date: 03 February 2023
Orbit: 602 x 627 km, 82.5° (Epoch: 21 March)

Event Time Altitude Azimuth Distance (km) Brightness Sun altitude
Rises 17:23:07 0° 358° (N) 2,869 6.8 -6.7°
Reaches altitude 10° 17:25:34 10° 9° (N) 1,959 5.9 -7.1°
Maximum altitude 17:29:23 29° 71° (ENE) 1,107 4.3 -7.7°
Drops below altitude 10° 17:33:10 10° 133° (SE) 1,947 5.8 -8.3°
Sets 17:35:36 0° 144° (SE) 2,848 6.7 -8.7°
